Weather History for Iron Mountain, MI

Change the Weather History Date:

Monday, February 18, 2013

  Actual Average Record
Temperature  
Mean Temperature 26 °F -  
Max Temperature 37 °F 29 °F 53 °F (1997)
Min Temperature 15 °F 8 °F -24 °F (1979)
Degree Days  
Heating Degree Days 39    
Moisture  
Dew Point 23 °F    
Average Humidity 78    
Maximum Humidity 93    
Minimum Humidity 59    
Precipitation  
Precipitation 0.00 in - - ()
Sea Level Pressure  
Sea Level Pressure 29.58 in    
Wind  
Wind Speed 7 mph (SSE)    
Max Wind Speed 16 mph    
Max Gust Speed 25 mph    
Visibility 8 miles    
Events Snow    
Averages and records for this station are not official NWS values.
T = Trace of Precipitation, MM = Missing Value Source: NWS Daily Summary

Daily Weather History Graph

Daily Weather History Graph

Search for Another Location

Airport:

Trip Planner

Search our weather history database for the weather conditions in past years. The results will help you decide how hot, cold, wet, or windy it might be!

Date:

Astronomy

Feb. 18, 2013 Rise Set
Actual Time 6:49 AM CST 5:23 PM CST
Civil Twilight 6:19 AM CST 5:54 PM CST
Nautical Twilight 5:44 AM CST 6:29 PM CST
Astronomical Twilight 5:10 AM CST 7:03 PM CST
Moon 11:00 AM CST (2/18) 1:37 AM CST (2/18)
Length of Visible Light 11h 35m
Length of Day
10h 34m
First Quarter, 58% of the Moon is Illuminated
Feb 18
First Quarter
Feb 25
Full
Mar 4
Last Quarter
Mar 11
New
Mar 19
First Quarter

Hourly Weather History & Observations

Time (CST) Temp. Windchill Dew Point Humidity Pressure Visibility Wind Dir Wind Speed Gust Speed Precip Events Conditions
12:54 AM 16.0 °F 7.4 °F 3.9 °F 59% 29.95 in 10.0 mi SSE 5.8 mph - N/A   Overcast
1:54 AM 18.0 °F 6.9 °F 6.1 °F 60% 29.92 in 6.0 mi SSE 9.2 mph - 0.00 in Snow Light Snow
2:09 AM 17.6 °F 5.7 °F 8.6 °F 68% 29.85 in 2.5 mi SSE 10.4 mph 18.4 mph 0.00 in Snow Light Snow
2:37 AM 15.8 °F 6.1 °F 10.4 °F 79% 29.82 in 4.0 mi SE 6.9 mph - 0.00 in Snow Light Snow
2:54 AM 17.1 °F 7.6 °F 10.9 °F 77% 29.87 in 10.0 mi SE 6.9 mph - 0.00 in   Overcast
3:54 AM 19.9 °F 12.1 °F 12.0 °F 71% 29.82 in 10.0 mi SE 5.8 mph - N/A   Overcast
4:54 AM 19.9 °F 14.9 °F 12.9 °F 74% 29.79 in 10.0 mi ESE 3.5 mph - N/A   Overcast
6:54 AM 19.9 °F 13.4 °F 15.1 °F 81% 29.75 in 10.0 mi SSE 4.6 mph - N/A   Clear
7:54 AM 23.0 °F 14.7 °F 19.0 °F 85% 29.72 in 10.0 mi SE 6.9 mph - N/A   Clear
8:25 AM 24.8 °F 16.1 °F 21.2 °F 86% 29.63 in 10.0 mi SE 8.1 mph - N/A   Mostly Cloudy
8:41 AM 26.6 °F 19.1 °F 23.0 °F 86% 29.63 in 10.0 mi SE 6.9 mph - N/A   Mostly Cloudy
8:54 AM 27.0 °F 18.7 °F 23.0 °F 85% 29.69 in 10.0 mi SE 8.1 mph - N/A   Mostly Cloudy
9:26 AM 28.4 °F 19.7 °F 24.8 °F 86% 29.61 in 10.0 mi SSE 9.2 mph - N/A   Mostly Cloudy
9:54 AM 30.9 °F 21.7 °F 24.1 °F 76% 29.66 in 10.0 mi SSE 11.5 mph - N/A   Partly Cloudy
10:37 AM 32.0 °F 23.0 °F 24.8 °F 75% 29.58 in 10.0 mi SSE 11.5 mph - N/A   Mostly Cloudy
10:54 AM 33.1 °F 26.1 °F 24.1 °F 70% 29.62 in 10.0 mi South 8.1 mph 25.3 mph N/A   Scattered Clouds
11:54 AM 35.1 °F 26.4 °F 24.1 °F 64% 29.59 in 10.0 mi South 12.7 mph - N/A   Clear
12:54 PM 37.0 °F 30.4 °F 25.0 °F 62% 29.55 in 10.0 mi SSE 9.2 mph - N/A   Clear
1:54 PM 37.9 °F 30.5 °F 25.0 °F 60% 29.53 in 10.0 mi South 11.5 mph - N/A   Clear
2:54 PM 37.0 °F 30.4 °F 25.0 °F 62% 29.51 in 10.0 mi South 9.2 mph - N/A   Clear
3:54 PM 37.0 °F 30.4 °F 26.1 °F 65% 29.50 in 10.0 mi South 9.2 mph - N/A   Mostly Cloudy
5:01 PM 35.6 °F 30.7 °F 26.6 °F 70% 29.46 in 10.0 mi South 5.8 mph - N/A   Overcast
5:17 PM 35.6 °F 32.8 °F 26.6 °F 70% 29.45 in 10.0 mi South 3.5 mph - N/A   Overcast
5:54 PM 35.1 °F 32.2 °F 27.0 °F 72% 29.51 in 6.0 mi South 3.5 mph - 0.00 in Snow Light Snow
6:51 PM 33.8 °F - 28.4 °F 81% 29.45 in 2.5 mi Calm Calm - 0.00 in Snow Light Snow
6:54 PM 33.1 °F - 28.9 °F 85% 29.51 in 2.5 mi Calm Calm - 0.00 in Snow Light Snow
7:02 PM 33.8 °F - 28.4 °F 81% 29.45 in 3.0 mi Calm Calm - 0.00 in Snow Light Snow
7:54 PM 32.0 °F - 30.0 °F 92% 29.48 in 5.0 mi Calm Calm - 0.00 in   Overcast
8:29 PM 32.0 °F - 28.4 °F 87% 29.42 in 6.0 mi Calm Calm - N/A   Overcast
8:54 PM 30.9 °F - 28.9 °F 92% 29.46 in 5.0 mi Calm Calm - N/A   Overcast
9:18 PM 30.2 °F 25.4 °F 28.4 °F 93% 29.40 in 5.0 mi NW 4.6 mph - N/A   Overcast
9:36 PM 32.0 °F 25.6 °F 28.4 °F 87% 29.39 in 8.0 mi NNW 6.9 mph - N/A   Overcast
9:54 PM 32.0 °F 27.5 °F 28.9 °F 88% 29.43 in 8.0 mi NNW 4.6 mph - N/A   Overcast
10:18 PM 32.0 °F 26.4 °F 28.4 °F 87% 29.39 in 8.0 mi NNW 5.8 mph - N/A   Overcast
10:54 PM 32.0 °F 23.6 °F 28.0 °F 85% 29.41 in 9.0 mi NNW 10.4 mph - N/A   Overcast
11:10 PM 30.2 °F 20.2 °F 28.4 °F 93% 29.37 in 1.8 mi NNW 12.7 mph - 0.00 in Snow Light Snow
11:33 PM 30.2 °F 18.9 °F 26.6 °F 86% 29.37 in 1.5 mi NNW 16.1 mph - 0.00 in Snow Light Snow
11:54 PM 28.9 °F 19.2 °F 26.1 °F 89% 29.41 in 1.8 mi NNW 11.5 mph - 0.00 in Snow Light Snow